Location: Downe
(51.3167°N, 0.0500°E)
Time: 17:20:29
(UTC+00:00)

USA 234 - Pass Details

Date: 17 November 2019
Orbit: 1099 x 1108 km, 123.0° (Epoch: 30 November)

Event Time Altitude Azimuth Distance (km) Brightness Sun altitude
Rises 03:56:29 0° 73° (ENE) 3,919 7.3 -31.4°
Reaches altitude 10° 03:59:00 10° 69° (ENE) 2,962 6.4 -31.1°
Maximum altitude 04:05:21 56° 353° (N) 1,293 3.5 -30.1°
Enters shadow 04:05:48 55° 338° (NNW) 1,307 3.4 -30.0°
